Bonaire, Bonaire

1:10 PM AST on February 11, 2016 (GMT -0400)
Flamingo

Weather History for TNCB - March, 2014

Change the Weather History Date:

Tuesday, March 11, 2014

  Actual Average Record
Temperature  
Mean Temperature 80 °F -  
Max Temperature 86 °F 85 °F 91 °F (2005)
Min Temperature 75 °F 78 °F 75 °F (2008)
Cooling Degree Days 16    
Growing Degree Days 30 (Base 50)    
Moisture  
Dew Point 71 °F    
Average Humidity 76    
Maximum Humidity 89    
Minimum Humidity 62    
Precipitation  
Precipitation 0.00 in - - ()
Sea Level Pressure  
Sea Level Pressure 29.89 in    
Wind  
Wind Speed 9 mph ()    
Max Wind Speed 17 mph    
Max Gust Speed -    
Visibility 6.2 miles    
Events      
Averages and records for this station are not official NWS values.
T = Trace of Precipitation, MM = Missing Value Source: Averaged Metar Reports

Daily Weather History Graph

Daily Weather History Graph

Search for Another Location

Airport or City:

Trip Planner

Search our weather history database for the weather conditions in past years. The results will help you decide how hot, cold, wet, or windy it might be!

Date:

Astronomy

Mar. 11, 2014 Rise Set
Actual Time 6:42 AM AST 6:43 PM AST
Civil Twilight 6:21 AM AST 7:04 PM AST
Nautical Twilight 5:57 AM AST 7:29 PM AST
Astronomical Twilight 5:32 AM AST 7:53 PM AST
Moon 2:51 PM AST 2:57 AM AST
Length of Visible Light 12h 42m
Length of Day
12h 00m
Waxing Gibbous, 78% of the Moon is Illuminated
Mar 11
Waxing Gibbous
Mar 16
Full
Mar 23
Last Quarter
Mar 30
New
Apr 7
First Quarter

Hourly Weather History & Observations

Time (AST) Temp. Heat Index Dew Point Humidity Pressure Visibility Wind Dir Wind Speed Gust Speed Precip Events Conditions
12:00 AM 77.0 °F - 71.6 °F 83% 29.92 in 6.2 mi ENE 6.9 mph - N/A   Scattered Clouds
1:00 AM 77.0 °F - 69.8 °F 78% 29.92 in 6.2 mi ENE 9.2 mph - N/A   Scattered Clouds
2:00 AM 77.0 °F - 71.6 °F 83% 29.89 in 6.2 mi ENE 8.1 mph - N/A   Scattered Clouds
3:00 AM 77.0 °F - 71.6 °F 83% 29.86 in - East 8.1 mph - N/A   Unknown
4:00 AM 77.0 °F - 71.6 °F 83% 29.86 in - East 10.4 mph - N/A   Unknown
5:00 AM 77.0 °F - 71.6 °F 83% 29.86 in - East 8.1 mph - N/A   Unknown
6:00 AM 75.2 °F - 71.6 °F 89% 29.86 in - East 4.6 mph - N/A   Unknown
7:00 AM 77.0 °F - 71.6 °F 83% 29.89 in - East 5.8 mph - N/A   Unknown
8:00 AM 78.8 °F - 71.6 °F 78% 29.92 in - East 10.4 mph - N/A   Unknown
9:00 AM 80.6 °F 84.6 °F 71.6 °F 74% 29.92 in 6.2 mi East 12.7 mph - N/A   Scattered Clouds
10:00 AM 82.4 °F 87.2 °F 71.6 °F 70% 29.95 in - East 11.5 mph - N/A   Unknown
11:00 AM 86.0 °F 91.8 °F 71.6 °F 62% 29.95 in - East 13.8 mph - N/A   Unknown
1:00 PM 84.2 °F 89.6 °F 71.6 °F 66% 29.92 in - ENE 16.1 mph - N/A   Unknown
2:00 PM 84.2 °F 89.6 °F 71.6 °F 66% 29.89 in 6.2 mi NE 16.1 mph - N/A   Scattered Clouds
3:00 PM 84.2 °F 88.4 °F 69.8 °F 62% 29.86 in 6.2 mi ENE 17.3 mph - N/A   Scattered Clouds
5:00 PM 82.4 °F 86.3 °F 69.8 °F 66% 29.83 in 6.2 mi ENE 15.0 mph - N/A   Scattered Clouds
6:00 PM 80.6 °F 84.6 °F 71.6 °F 74% 29.86 in - ENE 16.1 mph - N/A   Unknown
7:00 PM 78.8 °F - 71.6 °F 78% 29.86 in 6.2 mi ENE 13.8 mph - N/A   Scattered Clouds
8:00 PM 78.8 °F - 71.6 °F 78% 29.89 in 6.2 mi ENE 13.8 mph - N/A   Scattered Clouds